Погода в Сорсогоне

Филиппины     12°59′01″N   124°00′40″E
темп.,
°C
ветер,
м/с
пор.,
м/с
влажн.,
%
обл.,
%
осадки,
мм/ч
давл.,
гПа
погр.,
м
18 апреля, вс
вс1823:00+26с71183100 0.3 1009969
02:00+25ссз81384100 1.3 10061045
05:00+25ссз81483100 0.9 10061186
08:00+25ссз91684100 1.9 10061258
11:00+24сз91792100 8.6 10051315
14:00+24зсз71892100 18.2 10011448
17:00+24сз81892100 4.1 10011390
20:00+24сз71695100 17.1 10021113
19 апреля, пн
пн1923:00+24зсз61594100 13.0 10021189
02:00+24зсз71596100 33.7 9991175
05:00+24зсз71495100 17.8 1000951
08:00+23з101692100 39.4 1001931
11:00+23з111892100 14.9 1002936
14:00+23з111793100 24.8 1001964
17:00+23з112088100 8.4 10021061
20:00+23з81789100 18.8 1004842
20 апреля, вт
вт2023:00+23з71691100 4.8 1003983
02:00+24з81690100 19.6 1002930
05:00+24зюз81589100 8.7 1002867
08:00+25зюз61288100 9.5 1005913
11:00+27з71177100 0.0 10041002
14:00+27зюз71276100 0.1 10031021
17:00+26зюз51079100 0.1 1004794
20:00+25зюз4985100 0.3 1006386
21 апреля, ср
ср2123:00+25з3683100 0.1 1006217
02:00+25зюз3686100 0.1 1005231
05:00+25юз4787100 0.0 1005330
08:00+27юз5781100 0.0 1007590
11:00+29юз5770100 0.1 1006969
14:00+29юз5770100 0.4 10041050
17:00+27юз4680100 0.0 1004478
20:00+26зюз4888100 0.0 1006403
22 апреля, чт
чт2223:00+26юз5989100 0.1 1006484
02:00+26юз6987100 0.3 1005579
05:00+25юз5989100 0.1 1005551
08:00+27юз5781100 0.2 1007696
11:00+28юз5674100 0.4 1006910
14:00+30зюз576796 0.5 1004839
17:00+28юз467760 0.0 1003566
20:00+26юз4788100 0.0 1006292